Osceola, WI

3:22 AM CDT on August 28, 2016 (GMT -0500)
Simenstad Municipal

Weather History for KOEO - October, 2012

Change the Weather History Date:

Thursday, October 4, 2012

  Actual Average (KMSP) Record (KMSP)
Temperature  
Mean Temperature 52 °F 54 °F  
Max Temperature 62 °F 64 °F 89 °F (1922)
Min Temperature 41 °F 44 °F 24 °F (1935)
Degree Days  
Heating Degree Days 14 12  
Month to date heating degree days 44  
Since 1 July heating degree days 217  
Cooling Degree Days 0 0  
Month to date cooling degree days 3  
Year to date cooling degree days 750  
Growing Degree Days 2 (Base 50)    
Moisture  
Dew Point 36 °F    
Average Humidity 61    
Maximum Humidity 76    
Minimum Humidity 47    
Precipitation  
Precipitation 0.00 in 0.10 in 4.61 in (2005)
Month to date precipitation 0.40  
Year to date precipitation 25.65  
Snow  
Snow 0.00 in 0.00 in T in (1935)
Month to date snowfall 0.0  
Since 1 July snowfall T  
Since 1 September snowfall T  
Snow Depth -    
Sea Level Pressure  
Sea Level Pressure 29.97 in    
Wind  
Wind Speed 16 mph (WSW)    
Max Wind Speed 28 mph    
Max Gust Speed 37 mph    
Visibility 10 miles    
Events      
T = Trace of Precipitation, MM = Missing Value Source: NWS Daily Summary

Daily Weather History Graph

Daily Weather History Graph

Search for Another Location

Airport or City:

Trip Planner

Search our weather history database for the weather conditions in past years. The results will help you decide how hot, cold, wet, or windy it might be!

Date:

Astronomy

Oct. 04, 2012 Rise Set
Actual Time 7:13 AM CDT 6:44 PM CDT
Civil Twilight 6:43 AM CDT 7:13 PM CDT
Nautical Twilight 6:09 AM CDT 7:48 PM CDT
Astronomical Twilight 5:35 AM CDT 8:22 PM CDT
Moon 9:07 PM CDT (10/4) 11:43 AM CDT (10/4)
Length of Visible Light 12h 30m
Length of Day
11h 31m
Waning Gibbous, 82% of the Moon is Illuminated
Oct 4
Waning Gibbous
Oct 8
Last Quarter
Oct 15
New
Oct 21
First Quarter
Oct 29
Full

Hourly Weather History & Observations

Time (CDT) Temp. Windchill Dew Point Humidity Pressure Visibility Wind Dir Wind Speed Gust Speed Precip Events Conditions
12:15 AM 62.6 °F - 44.6 °F 52% 29.88 in 10.0 mi SE 8.1 mph - N/A   Clear
12:35 AM 62.6 °F - 44.6 °F 52% 29.87 in 10.0 mi SE 9.2 mph - N/A   Clear
12:55 AM 62.6 °F - 44.6 °F 52% 29.87 in 10.0 mi SSE 11.5 mph - N/A   Clear
1:15 AM 62.6 °F - 44.6 °F 52% 29.86 in 10.0 mi SE 12.7 mph 17.3 mph N/A   Clear
1:35 AM 62.6 °F - 44.6 °F 52% 29.85 in 10.0 mi SE 10.4 mph - N/A   Clear
1:55 AM 62.6 °F - 44.6 °F 52% 29.84 in 10.0 mi SE 11.5 mph - N/A   Clear
2:15 AM 60.8 °F - 44.6 °F 55% 29.83 in 10.0 mi SE 11.5 mph 17.3 mph N/A   Clear
2:35 AM 60.8 °F - 44.6 °F 55% 29.83 in 10.0 mi SSE 12.7 mph 17.3 mph N/A   Clear
2:55 AM 60.8 °F - 44.6 °F 55% 29.81 in 10.0 mi SSE 12.7 mph 18.4 mph N/A   Clear
3:15 AM 60.8 °F - 44.6 °F 55% 29.81 in 10.0 mi SSE 11.5 mph 18.4 mph N/A   Clear
3:35 AM 59.0 °F - 44.6 °F 59% 29.80 in 10.0 mi SSE 13.8 mph - N/A   Clear
3:55 AM 60.8 °F - 44.6 °F 55% 29.79 in 10.0 mi SSE 13.8 mph 19.6 mph N/A   Clear
4:15 AM 59.0 °F - 44.6 °F 59% 29.79 in 10.0 mi SSE 10.4 mph 18.4 mph N/A   Clear
4:35 AM 59.0 °F - 42.8 °F 55% 29.79 in 10.0 mi South 11.5 mph - N/A   Scattered Clouds
4:55 AM 60.8 °F - 41.0 °F 48% 29.79 in 10.0 mi South 13.8 mph - N/A   Scattered Clouds
5:15 AM 60.8 °F - 41.0 °F 48% 29.80 in 10.0 mi SSW 17.3 mph 21.9 mph N/A   Clear
5:35 AM 55.4 °F - 41.0 °F 58% 29.81 in 10.0 mi SW 19.6 mph 25.3 mph N/A   Clear
5:55 AM 53.6 °F - 41.0 °F 62% 29.82 in 10.0 mi SW 20.7 mph 26.5 mph N/A   Clear
6:15 AM 50.0 °F - 41.0 °F 71% 29.85 in 10.0 mi WSW 18.4 mph - N/A   Clear
6:35 AM 50.0 °F - 41.0 °F 71% 29.85 in 10.0 mi SW 20.7 mph 27.6 mph N/A   Mostly Cloudy
6:55 AM 48.2 °F - 41.0 °F 76% 29.86 in 10.0 mi SW 16.1 mph 23.0 mph N/A   Overcast
7:15 AM 48.2 °F - 41.0 °F 76% 29.86 in 10.0 mi SW 18.4 mph 23.0 mph N/A   Overcast
7:35 AM 48.2 °F - 41.0 °F 76% 29.87 in 10.0 mi SW 25.3 mph 29.9 mph N/A   Overcast
7:55 AM 48.2 °F - 41.0 °F 76% 29.88 in 10.0 mi SW 17.3 mph 28.8 mph N/A   Overcast
8:15 AM 48.2 °F - 41.0 °F 76% 29.89 in 10.0 mi SW 20.7 mph 27.6 mph N/A   Overcast
8:35 AM 48.2 °F - 41.0 °F 76% 29.89 in 10.0 mi SW 18.4 mph 25.3 mph N/A   Overcast
8:55 AM 46.4 °F 40.7 °F 39.2 °F 76% 29.89 in 10.0 mi SW 12.7 mph 18.4 mph N/A   Overcast
9:15 AM 46.4 °F 37.9 °F 37.4 °F 71% 29.91 in 10.0 mi WSW 25.3 mph 29.9 mph N/A   Overcast
9:35 AM 46.4 °F 38.1 °F 37.4 °F 71% 29.92 in 10.0 mi WSW 24.2 mph 28.8 mph N/A   Overcast
9:55 AM 46.4 °F 37.7 °F 35.6 °F 66% 29.92 in 10.0 mi SW 26.5 mph 32.2 mph N/A   Mostly Cloudy
10:15 AM 48.2 °F - 35.6 °F 62% 29.93 in 10.0 mi WSW 21.9 mph 31.1 mph N/A   Overcast
10:35 AM 48.2 °F - 35.6 °F 62% 29.94 in 10.0 mi WSW 19.6 mph 28.8 mph N/A   Overcast
10:55 AM 50.0 °F - 33.8 °F 54% 29.94 in 10.0 mi WSW 20.7 mph 35.7 mph N/A   Overcast
11:15 AM 46.4 °F 38.1 °F 33.8 °F 62% 29.96 in 10.0 mi WSW 24.2 mph 32.2 mph N/A   Overcast
11:35 AM 46.4 °F 38.7 °F 33.8 °F 62% 29.96 in 10.0 mi WSW 20.7 mph 28.8 mph N/A   Overcast
11:55 AM 46.4 °F 38.5 °F 33.8 °F 62% 29.98 in 10.0 mi WSW 21.9 mph 33.4 mph N/A   Overcast
12:15 PM 46.4 °F 38.1 °F 33.8 °F 62% 29.99 in 10.0 mi WSW 24.2 mph 36.8 mph N/A   Overcast
12:35 PM 46.4 °F 38.3 °F 33.8 °F 62% 29.99 in 10.0 mi WSW 23.0 mph 31.1 mph N/A   Overcast
12:55 PM 48.2 °F - 33.8 °F 58% 30.00 in 10.0 mi WSW 27.6 mph 32.2 mph N/A   Overcast
1:35 PM 50.0 °F - 32.0 °F 50% 30.00 in 10.0 mi West 20.7 mph 29.9 mph N/A   Overcast
1:55 PM 50.0 °F - 32.0 °F 50% 30.01 in 7.0 mi WSW 21.9 mph 34.5 mph N/A   Overcast
2:15 PM 50.0 °F - 32.0 °F 50% 30.01 in 10.0 mi West 24.2 mph 31.1 mph N/A   Overcast
2:35 PM 51.8 °F - 32.0 °F 47% 30.02 in 10.0 mi WSW 26.5 mph 33.4 mph N/A   Overcast
2:55 PM 50.0 °F - 32.0 °F 50% 30.03 in 10.0 mi West 26.5 mph 34.5 mph N/A   Mostly Cloudy
3:15 PM 50.0 °F - 32.0 °F 50% 30.03 in 10.0 mi West 21.9 mph 33.4 mph N/A   Mostly Cloudy
3:35 PM 48.2 °F - 32.0 °F 54% 30.04 in 10.0 mi West 23.0 mph 31.1 mph N/A   Overcast
3:55 PM 48.2 °F - 32.0 °F 54% 30.04 in 10.0 mi West 21.9 mph 33.4 mph N/A   Overcast
4:15 PM 48.2 °F - 32.0 °F 54% 30.05 in 10.0 mi West 21.9 mph 29.9 mph N/A   Overcast
4:35 PM 46.4 °F 38.7 °F 32.0 °F 57% 30.06 in 10.0 mi West 20.7 mph 28.8 mph N/A   Overcast
4:55 PM 46.4 °F 39.8 °F 32.0 °F 57% 30.06 in 10.0 mi West 16.1 mph 29.9 mph N/A   Overcast
5:15 PM 46.4 °F 38.5 °F 32.0 °F 57% 30.07 in 10.0 mi West 21.9 mph 33.4 mph N/A   Overcast
5:35 PM 44.6 °F 35.7 °F 32.0 °F 61% 30.09 in 10.0 mi West 24.2 mph 34.5 mph N/A   Overcast
5:55 PM 44.6 °F 37.8 °F 32.0 °F 61% 30.08 in 10.0 mi West 15.0 mph 27.6 mph N/A   Overcast
6:15 PM 44.6 °F 36.9 °F 32.0 °F 61% 30.09 in 10.0 mi West 18.4 mph 29.9 mph N/A   Overcast
6:35 PM 44.6 °F 37.2 °F 32.0 °F 61% 30.09 in 10.0 mi West 17.3 mph 21.9 mph N/A   Overcast
6:55 PM 44.6 °F 36.4 °F 32.0 °F 61% 30.10 in 10.0 mi West 20.7 mph 27.6 mph N/A   Overcast
7:15 PM 44.6 °F 35.9 °F 30.2 °F 57% 30.11 in 10.0 mi West 23.0 mph 27.6 mph N/A   Overcast
7:35 PM 44.6 °F 36.6 °F 30.2 °F 57% 30.11 in 10.0 mi West 19.6 mph 26.5 mph N/A   Overcast
7:55 PM 42.8 °F 34.3 °F 32.0 °F 66% 30.11 in 10.0 mi West 19.6 mph 27.6 mph N/A   Overcast
8:15 PM 42.8 °F 35.1 °F 32.0 °F 66% 30.11 in 10.0 mi West 16.1 mph 26.5 mph N/A   Overcast
8:35 PM 42.8 °F 35.1 °F 30.2 °F 61% 30.12 in 10.0 mi West 16.1 mph 29.9 mph N/A   Overcast
8:55 PM 42.8 °F 35.4 °F 30.2 °F 61% 30.12 in 10.0 mi West 15.0 mph 26.5 mph N/A   Overcast
9:15 PM 42.8 °F 35.4 °F 30.2 °F 61% 30.13 in 10.0 mi West 15.0 mph 24.2 mph N/A   Scattered Clouds
9:35 PM 41.0 °F 32.5 °F 30.2 °F 65% 30.13 in 10.0 mi West 17.3 mph 27.6 mph N/A   Scattered Clouds
9:55 PM 41.0 °F 33.5 °F 30.2 °F 65% 30.13 in 10.0 mi West 13.8 mph 21.9 mph N/A   Scattered Clouds
10:15 PM 41.0 °F 32.8 °F 30.2 °F 65% 30.13 in 10.0 mi West 16.1 mph 23.0 mph N/A   Mostly Cloudy
10:35 PM 41.0 °F 34.3 °F 32.0 °F 70% 30.13 in 10.0 mi West 11.5 mph - N/A   Overcast
10:55 PM 41.0 °F 33.9 °F 32.0 °F 70% 30.14 in 10.0 mi West 12.7 mph - N/A   Overcast
11:15 PM 41.0 °F 34.3 °F 32.0 °F 70% 30.14 in 10.0 mi West 11.5 mph 16.1 mph N/A   Overcast
11:35 PM 41.0 °F 32.8 °F 30.2 °F 65% 30.14 in 10.0 mi West 16.1 mph 23.0 mph N/A   Overcast
11:55 PM 41.0 °F 32.2 °F 30.2 °F 65% 30.14 in 10.0 mi West 18.4 mph 26.5 mph N/A   Overcast